FLOCK 3P-69 (42020 NORAD) Tracking and Keplerian Element Data

This shows tracking and keplerian element data for the satellite.

Feedback or suggestion? Click here.




ElementValue
Catalog42020
NameFLOCK 3P-69
Epoch Orbit17248
Epoch Day91.87926281
Epoch Year2020
RAAN161.1599
Inclination97.3738
Eccentricity0.0007215
Argument of Perigee197.5146
Mean Anonmoly162.5845
Mean Motion15.2668906
Decay Rate2.928E-05
L11 42020U 17008CA 20091.87926281 .00002928 00000-0 11429-3 0 9990
L22 42020 97.3738 161.1599 0007215 197.5146 162.5845 15.26689060172483

Live tracking and technical data element details for FLOCK 3P-69 (NORAD 42020). FLOCK 3P-69 can be tracked NOW for your location showing map with azimuth and elevation plus other details from your city location.

Track the satellite on the map from your city or location and see movement details for azimuth, elevation, latitude, longitude, range, height, and movement on the map or in text.







IsCatalogInMostPopularTable: catalog: 42020, numindb: 327
Update: records affected: 1



GetName: 42020 FLOCK 3P-69

Hit Count: updated at: Thu, 02 Apr 2020 03:04:38 GMT